Time,TemperatureF,DewpointF,PressureIn,WindDirection,WindDirectionDegrees,WindSpeedMPH,WindSpeedGustMPH,Humidity,HourlyPrecipIn,Conditions,Clouds,dailyrainin,SoftwareType,DateUTC
2013-05-31 00:00:00,48.2,45.8,30.10,SSE,158,0.0,0.0,91,0.00,,,0.00,WUHU216HW,2013-05-31 07:00:00,
2013-05-31 00:05:00,48.2,45.8,30.10,SSE,158,0.0,0.0,91,0.00,,,0.00,WUHU216HW,2013-05-31 07:05:00,
2013-05-31 00:30:00,48.1,45.9,30.10,South,180,1.1,1.1,92,0.00,,,0.00,WUHU216HW,2013-05-31 07:30:00,
2013-05-31 00:35:00,48.1,45.9,30.10,South,180,1.1,1.1,92,0.00,,,0.00,WUHU216HW,2013-05-31 07:35:00,
2013-05-31 01:00:00,48.1,45.9,30.10,South,180,0.0,0.0,92,0.00,,,0.00,WUHU216HW,2013-05-31 08:00:00,
2013-05-31 01:05:00,48.1,45.9,30.10,South,180,0.0,0.0,92,0.00,,,0.00,WUHU216HW,2013-05-31 08:05:00,
2013-05-31 01:30:00,47.9,45.7,30.11,South,180,0.0,0.0,92,0.00,,,0.00,WUHU216HW,2013-05-31 08:30:00,
2013-05-31 01:35:00,47.9,45.7,30.11,South,180,0.0,0.0,92,0.00,,,0.00,WUHU216HW,2013-05-31 08:35:00,
2013-05-31 02:00:00,47.9,46.0,30.11,East,90,0.0,0.0,93,0.00,,,0.00,WUHU216HW,2013-05-31 09:00:00,
2013-05-31 02:05:00,47.9,46.0,30.11,East,90,0.0,0.0,93,0.00,,,0.00,WUHU216HW,2013-05-31 09:05:00,
2013-05-31 02:30:00,48.2,46.1,30.12,ESE,113,0.0,0.0,92,0.00,,,0.00,WUHU216HW,2013-05-31 09:30:00,
2013-05-31 02:35:00,48.2,46.1,30.12,ESE,113,0.0,0.0,92,0.00,,,0.00,WUHU216HW,2013-05-31 09:35:00,
2013-05-31 03:00:00,48.1,45.9,30.12,South,180,0.0,0.0,92,0.00,,,0.00,WUHU216HW,2013-05-31 10:00:00,
2013-05-31 03:05:00,48.1,45.9,30.12,South,180,0.0,0.0,92,0.00,,,0.00,WUHU216HW,2013-05-31 10:05:00,
2013-05-31 03:30:00,47.9,45.7,30.12,South,180,0.0,0.0,92,0.00,,,0.00,WUHU216HW,2013-05-31 10:30:00,
2013-05-31 03:35:00,47.9,45.7,30.12,South,180,0.0,0.0,92,0.00,,,0.00,WUHU216HW,2013-05-31 10:35:00,
2013-05-31 04:00:00,47.9,45.7,30.12,South,180,0.0,0.0,92,0.00,,,0.00,WUHU216HW,2013-05-31 11:00:00,
2013-05-31 04:05:00,47.9,45.7,30.12,South,180,0.0,0.0,92,0.00,,,0.00,WUHU216HW,2013-05-31 11:05:00,
2013-05-31 04:30:00,47.7,45.5,30.12,SSE,158,0.0,0.0,92,0.00,,,0.00,WUHU216HW,2013-05-31 11:30:00,
2013-05-31 04:35:00,47.7,45.5,30.12,SSE,158,0.0,0.0,92,0.00,,,0.00,WUHU216HW,2013-05-31 11:35:00,
2013-05-31 05:00:00,47.2,45.0,30.13,SSE,158,0.0,0.0,92,0.00,,,0.00,WUHU216HW,2013-05-31 12:00:00,
2013-05-31 05:05:00,47.2,45.0,30.13,SSE,158,0.0,0.0,92,0.00,,,0.00,WUHU216HW,2013-05-31 12:05:00,
2013-05-31 05:30:00,46.8,44.9,30.13,SSE,158,0.0,0.0,93,0.00,,,0.00,WUHU216HW,2013-05-31 12:30:00,
2013-05-31 05:35:00,46.8,44.9,30.13,SSE,158,0.0,0.0,93,0.00,,,0.00,WUHU216HW,2013-05-31 12:35:00,
2013-05-31 06:00:00,46.6,44.5,30.14,SSE,158,0.0,0.0,92,0.00,,,0.00,WUHU216HW,2013-05-31 13:00:00,
2013-05-31 06:05:00,46.6,44.5,30.14,SSE,158,0.0,0.0,92,0.00,,,0.00,WUHU216HW,2013-05-31 13:05:00,
2013-05-31 06:30:00,48.1,45.9,30.15,SSE,158,0.0,0.0,92,0.00,,,0.00,WUHU216HW,2013-05-31 13:30:00,
2013-05-31 06:35:00,48.1,45.9,30.15,SSE,158,0.0,0.0,92,0.00,,,0.00,WUHU216HW,2013-05-31 13:35:00,
2013-05-31 07:00:00,49.5,47.5,30.15,SSE,158,0.0,0.0,93,0.00,,,0.00,WUHU216HW,2013-05-31 14:00:00,
2013-05-31 07:05:00,49.5,47.5,30.15,SSE,158,0.0,0.0,93,0.00,,,0.00,WUHU216HW,2013-05-31 14:05:00,
2013-05-31 07:30:00,51.8,49.5,30.16,NE,45,0.0,0.0,92,0.00,,,0.00,WUHU216HW,2013-05-31 14:30:00,
2013-05-31 07:35:00,51.8,49.5,30.16,NE,45,0.0,0.0,92,0.00,,,0.00,WUHU216HW,2013-05-31 14:35:00,
2013-05-31 08:00:00,53.6,51.3,30.17,NE,45,0.7,0.7,92,0.00,,,0.00,WUHU216HW,2013-05-31 15:00:00,
2013-05-31 08:05:00,53.6,51.3,30.17,NE,45,0.7,0.7,92,0.00,,,0.00,WUHU216HW,2013-05-31 15:05:00,
2013-05-31 08:30:00,55.6,51.5,30.17,East,90,0.7,0.7,86,0.00,,,0.00,WUHU216HW,2013-05-31 15:30:00,
2013-05-31 08:35:00,55.6,51.5,30.17,East,90,0.7,0.7,86,0.00,,,0.00,WUHU216HW,2013-05-31 15:35:00,
2013-05-31 08:59:00,56.2,50.4,30.18,WNW,293,0.4,0.4,81,0.00,,,0.00,WUHU216HW,2013-05-31 15:59:00,
2013-05-31 09:00:00,56.2,50.4,30.18,WNW,293,0.4,0.4,81,0.00,,,0.00,WUHU216HW,2013-05-31 16:00:00,
2013-05-31 09:05:00,56.2,50.4,30.18,WNW,293,0.4,0.4,81,0.00,,,0.00,WUHU216HW,2013-05-31 16:05:00,
2013-05-31 09:30:00,57.2,51.8,30.18,SE,135,0.4,0.4,82,0.00,,,0.00,WUHU216HW,2013-05-31 16:30:00,
2013-05-31 09:35:00,57.2,51.8,30.18,SE,135,0.4,0.4,82,0.00,,,0.00,WUHU216HW,2013-05-31 16:35:00,
2013-05-31 09:59:00,58.7,49.7,30.18,NNE,23,2.0,2.0,72,0.00,,,0.00,WUHU216HW,2013-05-31 16:59:00,
2013-05-31 10:00:00,58.7,49.7,30.18,NNE,23,2.0,2.0,72,0.00,,,0.00,WUHU216HW,2013-05-31 17:00:00,
2013-05-31 10:05:00,58.7,49.7,30.18,NNE,23,2.0,2.0,72,0.00,,,0.00,WUHU216HW,2013-05-31 17:05:00,
2013-05-31 10:30:00,60.7,48.9,30.17,NNE,23,1.3,1.3,65,0.00,,,0.00,WUHU216HW,2013-05-31 17:30:00,
2013-05-31 10:35:00,60.7,48.9,30.17,NNE,23,1.3,1.3,65,0.00,,,0.00,WUHU216HW,2013-05-31 17:35:00,
2013-05-31 10:59:00,59.0,49.3,30.17,NNE,23,0.2,0.2,70,0.00,,,0.00,WUHU216HW,2013-05-31 17:59:00,
2013-05-31 11:00:00,59.0,49.3,30.17,NNE,23,0.2,0.2,70,0.00,,,0.00,WUHU216HW,2013-05-31 18:00:00,
2013-05-31 11:05:00,59.0,49.3,30.17,NNE,23,0.2,0.2,70,0.00,,,0.00,WUHU216HW,2013-05-31 18:05:00,
2013-05-31 11:30:00,59.8,48.8,30.17,North,0,1.8,1.8,67,0.00,,,0.00,WUHU216HW,2013-05-31 18:30:00,
2013-05-31 11:35:00,59.8,48.8,30.17,North,0,1.8,1.8,67,0.00,,,0.00,WUHU216HW,2013-05-31 18:35:00,
2013-05-31 11:59:00,61.6,49.7,30.17,NW,315,0.4,0.4,65,0.00,,,0.00,WUHU216HW,2013-05-31 18:59:00,
2013-05-31 12:00:00,61.6,49.7,30.17,NW,315,0.4,0.4,65,0.00,,,0.00,WUHU216HW,2013-05-31 19:00:00,
2013-05-31 12:05:00,61.6,49.7,30.17,NW,315,0.4,0.4,65,0.00,,,0.00,WUHU216HW,2013-05-31 19:05:00,
2013-05-31 12:30:00,65.2,51.4,30.17,SW,225,0.7,0.7,61,0.00,,,0.00,WUHU216HW,2013-05-31 19:30:00,
2013-05-31 12:35:00,65.2,51.4,30.17,SW,225,0.7,0.7,61,0.00,,,0.00,WUHU216HW,2013-05-31 19:35:00,
2013-05-31 13:00:00,64.8,47.7,30.16,SSE,158,0.0,0.0,54,0.00,,,0.00,WUHU216HW,2013-05-31 20:00:00,
2013-05-31 13:05:00,64.8,47.7,30.16,SSE,158,0.0,0.0,54,0.00,,,0.00,WUHU216HW,2013-05-31 20:05:00,
2013-05-31 13:30:00,67.7,49.0,30.15,East,90,4.3,4.3,51,0.00,,,0.00,WUHU216HW,2013-05-31 20:30:00,
2013-05-31 13:35:00,67.7,49.0,30.15,East,90,4.3,4.3,51,0.00,,,0.00,WUHU216HW,2013-05-31 20:35:00,
2013-05-31 14:00:00,65.2,47.5,30.15,North,0,0.4,0.4,53,0.00,,,0.00,WUHU216HW,2013-05-31 21:00:00,
2013-05-31 14:05:00,65.2,47.5,30.15,North,0,0.4,0.4,53,0.00,,,0.00,WUHU216HW,2013-05-31 21:05:00,
2013-05-31 14:30:00,65.0,46.9,30.15,NNW,338,1.8,1.8,52,0.00,,,0.00,WUHU216HW,2013-05-31 21:30:00,
2013-05-31 14:35:00,65.0,46.9,30.15,NNW,338,1.8,1.8,52,0.00,,,0.00,WUHU216HW,2013-05-31 21:35:00,
2013-05-31 15:00:00,64.8,46.2,30.15,NNE,23,1.1,1.1,51,0.00,,,0.00,WUHU216HW,2013-05-31 22:00:00,
2013-05-31 15:05:00,64.8,46.2,30.15,NNE,23,1.1,1.1,51,0.00,,,0.00,WUHU216HW,2013-05-31 22:05:00,
2013-05-31 15:30:00,64.3,47.2,30.15,NW,315,2.2,2.2,54,0.00,,,0.00,WUHU216HW,2013-05-31 22:30:00,
2013-05-31 15:35:00,64.3,47.2,30.15,NW,315,2.2,2.2,54,0.00,,,0.00,WUHU216HW,2013-05-31 22:35:00,
2013-05-31 15:59:00,64.3,48.2,30.14,NNE,23,1.3,1.3,56,0.00,,,0.00,WUHU216HW,2013-05-31 22:59:00,
2013-05-31 16:00:00,64.3,48.2,30.14,NNE,23,1.3,1.3,56,0.00,,,0.00,WUHU216HW,2013-05-31 23:00:00,
2013-05-31 16:05:00,64.3,48.2,30.14,NNE,23,1.3,1.3,56,0.00,,,0.00,WUHU216HW,2013-05-31 23:05:00,
2013-05-31 16:30:00,63.9,45.8,30.14,NNE,23,2.5,2.5,52,0.00,,,0.00,WUHU216HW,2013-05-31 23:30:00,
2013-05-31 16:35:00,63.9,45.8,30.14,NNE,23,2.5,2.5,52,0.00,,,0.00,WUHU216HW,2013-05-31 23:35:00,
2013-05-31 16:59:00,65.2,47.5,30.13,North,0,1.8,1.8,53,0.00,,,0.00,WUHU216HW,2013-05-31 23:59:00,
2013-05-31 17:00:00,65.2,47.5,30.13,North,0,1.8,1.8,53,0.00,,,0.00,WUHU216HW,2013-06-01 00:00:00,
2013-05-31 17:05:00,65.2,47.5,30.13,North,0,1.8,1.8,53,0.00,,,0.00,WUHU216HW,2013-06-01 00:05:00,
2013-05-31 17:30:00,69.5,47.1,30.12,North,0,2.2,2.2,45,0.00,,,0.00,WUHU216HW,2013-06-01 00:30:00,
2013-05-31 17:35:00,69.5,47.1,30.12,North,0,2.2,2.2,45,0.00,,,0.00,WUHU216HW,2013-06-01 00:35:00,
2013-05-31 17:59:00,70.9,47.3,30.12,NW,315,1.3,1.3,43,0.00,,,0.00,WUHU216HW,2013-06-01 00:59:00,
2013-05-31 18:00:00,70.9,47.3,30.12,NW,315,1.3,1.3,43,0.00,,,0.00,WUHU216HW,2013-06-01 01:00:00,
2013-05-31 18:05:00,70.9,47.3,30.12,NW,315,1.3,1.3,43,0.00,,,0.00,WUHU216HW,2013-06-01 01:05:00,
2013-05-31 18:30:00,67.0,48.8,30.11,NE,45,0.4,0.4,52,0.00,,,0.00,WUHU216HW,2013-06-01 01:30:00,
2013-05-31 18:35:00,67.0,48.8,30.11,NE,45,0.4,0.4,52,0.00,,,0.00,WUHU216HW,2013-06-01 01:35:00,
2013-05-31 18:59:00,63.7,51.7,30.11,North,0,0.0,0.0,65,0.00,,,0.00,WUHU216HW,2013-06-01 01:59:00,
2013-05-31 19:00:00,63.7,51.7,30.11,North,0,0.0,0.0,65,0.00,,,0.00,WUHU216HW,2013-06-01 02:00:00,
2013-05-31 19:05:00,63.7,51.7,30.11,North,0,0.0,0.0,65,0.00,,,0.00,WUHU216HW,2013-06-01 02:05:00,
2013-05-31 19:30:00,71.6,53.6,30.10,NNW,338,0.2,0.2,53,0.00,,,0.00,WUHU216HW,2013-06-01 02:30:00,
2013-05-31 19:35:00,71.6,53.6,30.10,NNW,338,0.2,0.2,53,0.00,,,0.00,WUHU216HW,2013-06-01 02:35:00,
2013-05-31 19:59:00,64.4,47.8,30.10,NNW,338,1.6,1.6,55,0.00,,,0.00,WUHU216HW,2013-06-01 02:59:00,
2013-05-31 20:00:00,64.4,47.8,30.10,NNW,338,1.6,1.6,55,0.00,,,0.00,WUHU216HW,2013-06-01 03:00:00,
2013-05-31 20:05:00,64.4,47.8,30.10,NNW,338,1.6,1.6,55,0.00,,,0.00,WUHU216HW,2013-06-01 03:05:00,
2013-05-31 20:30:00,59.0,47.7,30.10,North,0,0.0,0.0,66,0.00,,,0.00,WUHU216HW,2013-06-01 03:30:00,
2013-05-31 20:35:00,59.0,47.7,30.10,North,0,0.0,0.0,66,0.00,,,0.00,WUHU216HW,2013-06-01 03:35:00,
2013-05-31 20:59:00,53.8,45.7,30.10,North,0,0.0,0.0,74,0.00,,,0.00,WUHU216HW,2013-06-01 03:59:00,
2013-05-31 21:00:00,53.8,45.7,30.10,North,0,0.0,0.0,74,0.00,,,0.00,WUHU216HW,2013-06-01 04:00:00,
2013-05-31 21:01:00,53.8,45.7,30.10,North,0,0.0,0.0,74,0.00,,,0.00,WUHU216HW,2013-06-01 04:01:00,
2013-05-31 21:06:00,53.8,45.7,30.10,North,0,0.0,0.0,74,0.00,,,0.00,WUHU216HW,2013-06-01 04:06:00,
2013-05-31 21:30:00,50.2,43.9,30.10,North,0,0.0,0.0,79,0.00,,,0.00,WUHU216HW,2013-06-01 04:30:00,
2013-05-31 21:35:00,50.2,43.9,30.10,North,0,0.0,0.0,79,0.00,,,0.00,WUHU216HW,2013-06-01 04:35:00,
2013-05-31 22:00:00,48.2,42.9,30.10,North,0,0.0,0.0,82,0.00,,,0.00,WUHU216HW,2013-06-01 05:00:00,
2013-05-31 22:30:00,46.6,42.4,30.10,SW,225,0.0,0.0,85,0.00,,,0.00,WUHU216HW,2013-06-01 05:30:00,
2013-05-31 22:35:00,46.4,42.2,30.10,SW,225,0.0,0.0,85,0.00,,,0.00,WUHU216HW,2013-06-01 05:35:00,
2013-05-31 22:40:00,46.1,41.9,30.10,SW,225,0.0,0.0,85,0.00,,,0.00,WUHU216HW,2013-06-01 05:40:00,
2013-05-31 22:45:00,46.1,41.9,30.09,SW,225,0.2,0.2,85,0.00,,,0.00,WUHU216HW,2013-06-01 05:45:00,
2013-05-31 22:50:00,45.9,41.7,30.09,SW,225,0.0,0.2,85,0.00,,,0.00,WUHU216HW,2013-06-01 05:50:00,
2013-05-31 22:55:00,45.7,42.1,30.09,SW,225,0.0,0.2,87,0.00,,,0.00,WUHU216HW,2013-06-01 05:55:00,
2013-05-31 23:00:00,45.5,41.6,30.09,SW,225,0.0,0.0,86,0.00,,,0.00,WUHU216HW,2013-06-01 06:00:00,
2013-05-31 23:05:00,45.2,41.2,30.09,SW,225,0.0,0.0,86,0.00,,,0.00,WUHU216HW,2013-06-01 06:05:00,
2013-05-31 23:10:00,45.0,41.7,30.09,SW,225,0.0,0.0,88,0.00,,,0.00,WUHU216HW,2013-06-01 06:10:00,
2013-05-31 23:15:00,45.0,41.4,30.09,SW,225,0.0,0.0,87,0.00,,,0.00,WUHU216HW,2013-06-01 06:15:00,
2013-05-31 23:20:00,45.0,41.4,30.09,SW,225,0.4,0.7,87,0.00,,,0.00,WUHU216HW,2013-06-01 06:20:00,
2013-05-31 23:25:00,45.0,41.4,30.09,SW,225,0.0,0.7,87,0.00,,,0.00,WUHU216HW,2013-06-01 06:25:00,
2013-05-31 23:30:00,44.5,41.1,30.09,SW,225,0.0,0.4,88,0.00,,,0.00,WUHU216HW,2013-06-01 06:30:00,
2013-05-31 23:35:00,44.3,41.0,30.09,SW,225,0.0,0.0,88,0.00,,,0.00,WUHU216HW,2013-06-01 06:35:00,
2013-05-31 23:40:00,44.5,40.9,30.09,South,180,0.0,0.7,87,0.00,,,0.00,WUHU216HW,2013-06-01 06:40:00,
2013-05-31 23:45:00,44.3,41.0,30.09,South,180,0.0,0.7,88,0.00,,,0.00,WUHU216HW,2013-06-01 06:45:00,
2013-05-31 23:50:00,44.3,41.0,30.08,South,180,0.0,0.0,88,0.00,,,0.00,WUHU216HW,2013-06-01 06:50:00,
2013-05-31 23:55:00,44.3,41.0,30.08,South,180,0.4,1.1,88,0.00,,,0.00,WUHU216HW,2013-06-01 06:55:00,